Regional Weather Roundup
Issued by NWS

Home | Current Version | Previous Version | Text Only | Print | Product List | Glossary Off
Versions: 1 2 3 4 5 6 7 8 9 10 11 12 13 14 15 16 17 18 19 20 21 22 23 24 25 26 27 28 29 30 31 32 33 34 35 36 37 38 39 40 41 42 43 44 45 46 47 48 49 50

000
ASUS43 KOAX 222010
RWRNE

WEATHER ROUNDUP FOR NEBRASKA
NATIONAL WEATHER SERVICE OMAHA NE
300 PM CDT FRI SEP 22 2017

NOTES: SATELLITE DATA IS BEING USED TO AUGMENT CLOUD COVER ABOVE
       12000 FEET.
       "FAIR" INDICATES FEW OR NO CLOUDS BELOW 12,000 FEET WITH NO
       SIGNIFICANT WEATHER AND/OR OBSTRUCTIONS TO VISIBILITY.


NEZ001>004-019>022-054>056-222100-
NEBRASKA PANHANDLE

CITY           SKY/WX    TMP DP  RH WIND       PRES   REMARKS
SCOTTSBLUFF    SUNNY     72  40  31 NW7G18    29.83F
ALLIANCE       SUNNY     69  44  40 N12G18    29.84R
CHADRON        SUNNY     72  38  29 W14       29.82F
GORDON         FAIR      66  44  45 N13       29.83R
KIMBALL        SUNNY     69  43  38 N13G18    29.86R
SIDNEY         SUNNY     73  44  35 NE10      29.84S
$$

NEZ057>060-069>072-079>082-222100-
SOUTHWEST NEBRASKA

CITY           SKY/WX    TMP DP  RH WIND       PRES   REMARKS
NORTH PLATTE   MOSUNNY   94  51  23 S16G26    29.71F HX  91
IMPERIAL       CLOUDY    86  42  21 NW6       29.74F
LEXINGTON      MOSUNNY   98  53  22 S29G38    29.71F HX  95
MCCOOK         PTSUNNY   97  56  25 S26G39    29.71F HX  95
OGALLALA       CLOUDY    80  41  25 NW7       29.77F
$$

NEZ005>010-023>029-035>040-094-222100-
NORTH CENTRAL NEBRASKA

CITY           SKY/WX    TMP DP  RH WIND       PRES   REMARKS
VALENTINE      SUNNY     73  49  42 W13       29.78S
AINSWORTH      SUNNY     77  53  43 N7        29.77R
BROKEN BOW     CLOUDY    95  54  25 S22G38    29.70F HX  93
O`NEILL        SUNNY     94  63  35 S18G26    29.70F HX  95
ORD            MOSUNNY   94  55  26 S17G30    29.70F HX  92
THEDFORD       MOSUNNY   82  52  34 NW8       29.76S
$$

NEZ041-046>049-061>064-073>077-083>087-222100-
SOUTH CENTRAL NEBRASKA

CITY           SKY/WX    TMP DP  RH WIND       PRES   REMARKS
GRAND ISLAND   MOSUNNY   95  62  33 S23G31    29.76S HX  96
AURORA         SUNNY     94  59  30 S20G31    29.77S HX  94
HASTINGS       SUNNY     96  54  24 S20G33    29.77F HX  94
HEBRON         SUNNY     96  61  31 S21G33    29.81S HX  96
HOLDREGE       MOSUNNY   96  51  21 S26G36    29.74S HX  93
KEARNEY        MOSUNNY   98  57  25 S35       29.73F HX  97
YORK           MOSUNNY   93  66  40 S21G28    29.78F HX  96
$$

NEZ011>018-030>034-042>045-222100-
NORTHEAST NEBRASKA

CITY           SKY/WX    TMP DP  RH WIND       PRES   REMARKS
NORFOLK        SUNNY     94  66  39 S25G36    29.73S HX  97
ALBION         MOSUNNY   92  68  45 S21G28    29.74S HX  97
BLAIR          SUNNY     95  65  38 S26G33    29.81S HX  97
COLUMBUS       SUNNY     95  68  41 S23G31    29.76F HX  99
FREMONT        SUNNY     95  64  35 S23G32    29.79F HX  97
TEKAMAH        SUNNY     95  69  42 S17G32    29.77F HX 100
WAYNE          SUNNY     89  69  50 S22G30    29.75F HX  93
$$

NEZ050>053-065>068-078-088>093-222100-
SOUTHEAST NEBRASKA

CITY           SKY/WX    TMP DP  RH WIND       PRES   REMARKS
LINCOLN        SUNNY     96  64  34 S24G33    29.80S HX  98
OMAHA EPPLEY   MOSUNNY   95  70  44 S23G33    29.81F HX 101
BEATRICE       SUNNY     95  66  38 S15G29    29.83S HX  98
FALLS CITY     SUNNY     90  70  51 S20G26    29.87F HX  95
NEBRASKA CITY  SUNNY     92  69  47 S20G29    29.85F HX  97
PLATTSMOUTH    SUNNY     94  70  46 S20       29.84S HX  99
$$

NEZ044-045-051>053-067-222100-
OMAHA AREA

CITY           SKY/WX    TMP DP  RH WIND       PRES   REMARKS
OMAHA EPPLEY   MOSUNNY   95  70  44 S23G33    29.81F HX 101
BLAIR          SUNNY     95  65  38 S26G33    29.81S HX  97
FREMONT        SUNNY     95  64  35 S23G32    29.79F HX  97
MILLARD        SUNNY     96  68  39 S18G25    29.81S HX 101
OFFUTT AFB     SUNNY     93  69  44 S17       29.82S HX  98
PLATTSMOUTH    SUNNY     94  70  46 S20       29.84S HX  99
WAHOO          FAIR      96  63  32 S20G30    29.80S HX  97
$$




USA.gov is the U.S. government's official web portal to all federal, state and local government web resources and services.